| time (UTC) | temp F | wind direction | speed MPH | gust MPH | rain 1hr in | rain 24hr in | rain mn in | humidity % | barometer mb |
| 20260508170020 | 70 | 160 | 2.0 | 6.0 | 0.00 | 0.00 | 0.00 | 56 | 1016.5 |
| 20260508165426 | 70 | 130 | 2.0 | 6.0 | 0.00 | 0.00 | 0.00 | 55 | 1016.6 |
| 20260508164504 | 70 | 34 | 1.0 | 6.0 | 0.00 | 0.00 | 0.00 | 57 | 1016.8 |
| 20260508163604 | 69 | 41 | 3.0 | 8.0 | 0.00 | 0.00 | 0.00 | 58 | 1016.9 |
| 20260508162704 | 69 | 75 | 2.0 | 8.0 | 0.00 | 0.00 | 0.00 | 57 | 1017.1 |
| 20260508161804 | 69 | 94 | 2.0 | 6.0 | 0.00 | 0.00 | 0.00 | 58 | 1017.2 |
| 20260508160905 | 69 | 178 | 1.0 | 7.0 | 0.00 | 0.00 | 0.00 | 61 | 1017.3 |
| 20260508160025 | 69 | 174 | 2.0 | 5.0 | 0.00 | 0.00 | 0.00 | 61 | 1017.3 |
| 20260508155405 | 68 | 157 | 2.0 | 5.0 | 0.00 | 0.00 | 0.00 | 61 | 1017.4 |
| 20260508154504 | 68 | 134 | 2.0 | 6.0 | 0.00 | 0.00 | 0.00 | 59 | 1017.6 |
| 20260508153644 | 68 | 97 | 2.0 | 8.0 | 0.00 | 0.01 | 0.00 | 63 | 1017.6 |
| 20260508152704 | 68 | 110 | 2.0 | 7.0 | 0.00 | 0.04 | 0.00 | 59 | 1017.8 |
| 20260508151804 | 68 | 98 | 1.0 | 5.0 | 0.00 | 0.05 | 0.00 | 62 | 1017.7 |
| 20260508150905 | 67 | 97 | 1.0 | 7.0 | 0.00 | 0.05 | 0.00 | 67 | 1017.6 |
| 20260508150005 | 66 | 82 | 2.0 | 7.0 | 0.00 | 0.05 | 0.00 | 65 | 1017.5 |
| 20260508145427 | 66 | 91 | 2.0 | 7.0 | 0.00 | 0.06 | 0.00 | 65 | 1017.5 |
| 20260508144504 | 66 | 102 | 2.0 | 7.0 | 0.00 | 0.06 | 0.00 | 65 | 1017.6 |
| 20260508143625 | 65 | 107 | 2.0 | 5.0 | 0.00 | 0.07 | 0.00 | 65 | 1017.6 |
| 20260508142704 | 64 | 82 | 2.0 | 6.0 | 0.00 | 0.09 | 0.00 | 67 | 1017.8 |
| 20260508141825 | 64 | 60 | 2.0 | 6.0 | 0.00 | 0.09 | 0.00 | 72 | 1017.7 |
| 20260508140922 | 63 | 92 | 2.0 | 5.0 | 0.00 | 0.10 | 0.00 | 72 | 1017.9 |
| 20260508140005 | 63 | 106 | 1.0 | 7.0 | 0.00 | 0.11 | 0.00 | 77 | 1017.9 |
| 20260508135404 | 62 | 110 | 1.0 | 7.0 | 0.00 | 0.19 | 0.00 | 77 | 1017.9 |
| 20260508134505 | 61 | 74 | 1.0 | 5.0 | 0.00 | 0.30 | 0.00 | 81 | 1017.7 |
| 20260508133604 | 61 | 65 | 1.0 | 3.0 | 0.00 | 0.40 | 0.00 | 84 | 1017.7 |
| 20260508132704 | 60 | 157 | 0.0 | 3.0 | 0.00 | 0.45 | 0.00 | 92 | 1017.8 |
| 20260508131805 | 59 | 36 | 0.0 | 1.0 | 0.00 | 0.48 | 0.00 | 94 | 1017.7 |
| 20260508130928 | 58 | 29 | 0.0 | 3.0 | 0.00 | 0.50 | 0.00 | 96 | 1017.5 |
| 20260508130005 | 58 | 13 | 0.0 | 2.0 | 0.00 | 0.56 | 0.00 | 97 | 1017.4 |
| 20260508125427 | 58 | 4 | 0.0 | 2.0 | 0.00 | 0.58 | 0.00 | 97 | 1017.4 |
| 20260508124504 | 57 | 293 | 0.0 | 1.0 | 0.00 | 0.63 | 0.00 | 97 | 1017.1 |
| 20260508123625 | 56 | 317 | 0.0 | 1.0 | 0.00 | 0.66 | 0.00 | 97 | 1017.1 |
| 20260508122704 | 56 | 332 | 0.0 | 1.0 | 0.00 | 0.73 | 0.00 | 97 | 1017.0 |
| 20260508121805 | 55 | 0 | 0.0 | 0.0 | 0.00 | 0.84 | 0.00 | 97 | 1016.9 |
| 20260508120905 | 54 | 0 | 0.0 | 0.0 | 0.00 | 0.89 | 0.00 | 97 | 1016.8 |
| 20260508120004 | 54 | 0 | 0.0 | 0.0 | 0.00 | 0.89 | 0.00 | 97 | 1016.9 |
| 20260508115405 | 53 | 0 | 0.0 | 0.0 | 0.00 | 0.89 | 0.00 | 97 | 1016.8 |
| 20260508114525 | 53 | 0 | 0.0 | 0.0 | 0.00 | 0.89 | 0.00 | 96 | 1016.7 |
| 20260508113606 | 52 | 0 | 0.0 | 0.0 | 0.00 | 0.89 | 0.00 | 96 | 1016.5 |
| 20260508112706 | 52 | 0 | 0.0 | 0.0 | 0.00 | 0.89 | 0.00 | 96 | 1016.2 |
| 20260508111804 | 52 | 0 | 0.0 | 0.0 | 0.00 | 0.89 | 0.00 | 96 | 1016.0 |
| 20260508110926 | 52 | 0 | 0.0 | 0.0 | 0.00 | 0.90 | 0.00 | 96 | 1015.7 |
| 20260508110006 | 52 | 0 | 0.0 | 0.0 | 0.00 | 0.91 | 0.00 | 96 | 1015.6 |
| 20260508105404 | 52 | 0 | 0.0 | 0.0 | 0.00 | 0.92 | 0.00 | 96 | 1015.5 |
| 20260508104504 | 52 | 0 | 0.0 | 0.0 | 0.00 | 0.94 | 0.00 | 96 | 1015.4 |
| 20260508103609 | 52 | 0 | 0.0 | 0.0 | 0.00 | 0.96 | 0.00 | 96 | 1015.3 |
| 20260508102725 | 52 | 0 | 0.0 | 0.0 | 0.00 | 0.97 | 0.00 | 96 | 1015.1 |
| 20260508101806 | 52 | 0 | 0.0 | 0.0 | 0.00 | 0.97 | 0.00 | 96 | 1015.1 |
| 20260508100925 | 52 | 0 | 0.0 | 0.0 | 0.00 | 0.98 | 0.00 | 96 | 1014.9 |
| 20260508100006 | 52 | 0 | 0.0 | 0.0 | 0.00 | 1.00 | 0.00 | 96 | 1014.7 |
| 20260508095404 | 52 | 0 | 0.0 | 0.0 | 0.00 | 1.00 | 0.00 | 96 | 1014.6 |
| 20260508094517 | 52 | 0 | 0.0 | 0.0 | 0.00 | 1.03 | 0.00 | 96 | 1014.5 |
| 20260508093640 | 52 | 0 | 0.0 | 0.0 | 0.00 | 1.03 | 0.00 | 95 | 1014.6 |
| 20260508092705 | 52 | 0 | 0.0 | 0.0 | 0.00 | 1.03 | 0.00 | 96 | 1014.5 |
| 20260508091804 | 52 | 0 | 0.0 | 0.0 | 0.00 | 1.03 | 0.00 | 95 | 1014.4 |
| 20260508090904 | 53 | 0 | 0.0 | 0.0 | 0.00 | 1.03 | 0.00 | 95 | 1014.3 |
| 20260508090005 | 52 | 0 | 0.0 | 0.0 | 0.00 | 1.03 | 0.00 | 95 | 1014.1 |
| 20260508085405 | 53 | 0 | 0.0 | 0.0 | 0.00 | 1.03 | 0.00 | 95 | 1014.2 |
| 20260508084532 | 53 | 0 | 0.0 | 0.0 | 0.00 | 1.04 | 0.00 | 95 | 1014.3 |
| 20260508083604 | 53 | 0 | 0.0 | 0.0 | 0.00 | 1.05 | 0.00 | 95 | 1014.2 |
| 20260508082705 | 54 | 0 | 0.0 | 0.0 | 0.00 | 1.05 | 0.00 | 95 | 1014.3 |
| 20260508081805 | 54 | 0 | 0.0 | 0.0 | 0.00 | 1.05 | 0.00 | 95 | 1014.2 |
| 20260508080906 | 54 | 0 | 0.0 | 0.0 | 0.00 | 1.05 | 0.00 | 95 | 1014.1 |
| 20260508080005 | 55 | 0 | 0.0 | 0.0 | 0.00 | 1.06 | 0.00 | 95 | 1013.9 |
| 20260508075404 | 55 | 0 | 0.0 | 0.0 | 0.00 | 1.06 | 0.00 | 95 | 1013.9 |
| 20260508074517 | 55 | 0 | 0.0 | 0.0 | 0.00 | 1.06 | 0.00 | 94 | 1014.1 |
| 20260508073606 | 55 | 0 | 0.0 | 0.0 | 0.00 | 1.06 | 0.00 | 94 | 1014.1 |
| 20260508072704 | 55 | 0 | 0.0 | 0.0 | 0.00 | 1.06 | 0.00 | 94 | 1014.0 |
| 20260508071807 | 55 | 0 | 0.0 | 0.0 | 0.00 | 1.06 | 0.00 | 94 | 1013.9 |
| 20260508070904 | 56 | 0 | 0.0 | 0.0 | 0.00 | 1.06 | 0.00 | 94 | 1013.9 |
| 20260508070005 | 56 | 0 | 0.0 | 0.0 | 0.00 | 1.07 | 0.00 | 93 | 1013.9 |
| 20260508065425 | 56 | 0 | 0.0 | 0.0 | 0.00 | 1.07 | 0.00 | 93 | 1013.9 |
| 20260508064519 | 56 | 0 | 0.0 | 0.0 | 0.00 | 1.07 | 0.00 | 93 | 1013.7 |
| 20260508063625 | 56 | 0 | 0.0 | 0.0 | 0.00 | 1.07 | 0.00 | 91 | 1013.7 |
| 20260508062705 | 57 | 0 | 0.0 | 0.0 | 0.00 | 1.07 | 0.00 | 91 | 1013.6 |
| 20260508061847 | 57 | 0 | 0.0 | 0.0 | 0.00 | 1.07 | 0.00 | 91 | 1013.4 |
| 20260508060905 | 58 | 0 | 0.0 | 0.0 | 0.00 | 1.07 | 0.00 | 91 | 1013.5 |
| 20260508060005 | 58 | 0 | 0.0 | 0.0 | 0.00 | 1.07 | 0.00 | 90 | 1013.6 |
| 20260508055405 | 58 | 0 | 0.0 | 0.0 | 0.00 | 1.07 | 0.00 | 90 | 1013.6 |
| 20260508054505 | 59 | 301 | 0.0 | 1.0 | 0.00 | 1.07 | 0.00 | 89 | 1013.7 |
| 20260508053625 | 59 | 274 | 0.0 | 1.0 | 0.00 | 1.07 | 0.00 | 89 | 1013.7 |
| 20260508052704 | 59 | 0 | 0.0 | 0.0 | 0.00 | 1.07 | 0.00 | 90 | 1014.0 |
| 20260508051825 | 59 | 0 | 0.0 | 0.0 | 0.00 | 1.07 | 0.00 | 89 | 1014.0 |
| 20260508050905 | 59 | 0 | 0.0 | 0.0 | 0.00 | 1.07 | 0.00 | 88 | 1013.6 |
| 20260508050026 | 59 | 274 | 0.0 | 1.0 | 0.00 | 1.07 | 0.00 | 87 | 1013.7 |
| 20260508045404 | 59 | 274 | 0.0 | 1.0 | 0.00 | 1.07 | 0.00 | 87 | 1013.5 |
| 20260508044524 | 59 | 0 | 0.0 | 0.0 | 0.00 | 1.07 | 0.00 | 88 | 1013.5 |
| 20260508043605 | 59 | 0 | 0.0 | 0.0 | 0.00 | 1.08 | 0.00 | 89 | 1013.5 |
| 20260508042704 | 60 | 0 | 0.0 | 0.0 | 0.00 | 1.08 | 0.00 | 89 | 1013.4 |
| 20260508041804 | 60 | 0 | 0.0 | 0.0 | 0.00 | 1.08 | 0.00 | 90 | 1013.3 |
| 20260508040904 | 60 | 277 | 0.0 | 1.0 | 0.00 | 1.08 | 0.00 | 88 | 1013.3 |
| 20260508040025 | 60 | 0 | 0.0 | 0.0 | 0.00 | 1.09 | 0.00 | 88 | 1013.2 |
| 20260508035404 | 61 | 0 | 0.0 | 0.0 | 0.00 | 1.12 | 1.09 | 87 | 1013.2 |
| 20260508034525 | 62 | 0 | 0.0 | 0.0 | 0.00 | 1.14 | 1.09 | 85 | 1013.2 |
| 20260508033604 | 62 | 318 | 0.0 | 5.0 | 0.00 | 1.19 | 1.09 | 84 | 1013.2 |
| 20260508032704 | 63 | 287 | 0.0 | 5.0 | 0.00 | 1.28 | 1.09 | 84 | 1013.0 |
| 20260508031804 | 64 | 286 | 1.0 | 4.0 | 0.00 | 1.35 | 1.09 | 83 | 1012.9 |
| 20260508030906 | 64 | 289 | 2.0 | 5.0 | 0.00 | 1.38 | 1.09 | 82 | 1012.8 |
| 20260508030004 | 64 | 283 | 1.0 | 4.0 | 0.00 | 1.42 | 1.09 | 82 | 1012.6 |
| 20260508025404 | 64 | 275 | 1.0 | 5.0 | 0.00 | 1.45 | 1.09 | 82 | 1012.7 |
| 20260508024505 | 65 | 286 | 1.0 | 5.0 | 0.00 | 1.51 | 1.09 | 81 | 1012.5 |
| 20260508023605 | 66 | 275 | 1.0 | 4.0 | 0.00 | 1.62 | 1.09 | 79 | 1012.3 |
| 20260508022704 | 67 | 286 | 3.0 | 6.0 | 0.00 | 1.66 | 1.09 | 79 | 1012.3 |
| 20260508021804 | 67 | 286 | 3.0 | 8.0 | 0.00 | 1.69 | 1.09 | 79 | 1012.2 |
| 20260508020921 | 67 | 295 | 4.0 | 12.0 | 0.00 | 1.70 | 1.09 | 79 | 1012.1 |
| 20260508020004 | 68 | 287 | 5.0 | 12.0 | 0.00 | 1.71 | 1.09 | 79 | 1011.7 |
| 20260508015404 | 68 | 287 | 5.0 | 10.0 | 0.00 | 1.73 | 1.09 | 79 | 1011.6 |
| 20260508014504 | 68 | 286 | 4.0 | 10.0 | 0.00 | 1.75 | 1.09 | 79 | 1011.4 |
| 20260508013607 | 69 | 277 | 6.0 | 14.0 | 0.00 | 1.79 | 1.09 | 79 | 1011.2 |
| 20260508012705 | 69 | 279 | 5.0 | 10.0 | 0.00 | 1.81 | 1.09 | 79 | 1011.1 |
| 20260508011804 | 69 | 279 | 5.0 | 12.0 | 0.00 | 1.82 | 1.09 | 79 | 1010.7 |
| 20260508010904 | 69 | 287 | 4.0 | 9.0 | 0.00 | 1.82 | 1.09 | 80 | 1010.6 |
| 20260508010004 | 69 | 279 | 2.0 | 8.0 | 0.00 | 1.82 | 1.09 | 81 | 1010.5 |
| 20260508005440 | 69 | 274 | 1.0 | 4.0 | 0.00 | 1.82 | 1.09 | 80 | 1010.2 |
| 20260508004504 | 69 | 279 | 1.0 | 3.0 | 0.00 | 1.82 | 1.09 | 81 | 1010.1 |
| 20260508003604 | 70 | 278 | 1.0 | 5.0 | 0.00 | 1.82 | 1.09 | 80 | 1009.9 |
| 20260508002704 | 70 | 236 | 0.0 | 2.0 | 0.00 | 1.82 | 1.09 | 79 | 1009.8 |
| 20260508001825 | 71 | 268 | 0.0 | 3.0 | 0.00 | 1.82 | 1.09 | 77 | 1009.7 |
| 20260508000904 | 72 | 293 | 1.0 | 8.0 | 0.00 | 1.82 | 1.09 | 76 | 1009.5 |
| 20260508000004 | 72 | 275 | 3.0 | 8.0 | 0.00 | 1.82 | 1.09 | 75 | 1009.3 |
| 20260507235425 | 72 | 277 | 2.0 | 6.0 | 0.00 | 1.82 | 1.09 | 76 | 1009.2 |
| 20260507234520 | 74 | 279 | 2.0 | 6.0 | 0.00 | 1.82 | 1.09 | 75 | 1009.0 |
| 20260507233604 | 74 | 267 | 2.0 | 8.0 | 0.00 | 1.82 | 1.09 | 73 | 1008.9 |
| 20260507232704 | 75 | 274 | 4.0 | 10.0 | 0.00 | 1.82 | 1.09 | 72 | 1008.6 |
| 20260507231804 | 76 | 269 | 4.0 | 10.0 | 0.00 | 1.82 | 1.09 | 71 | 1008.5 |
| 20260507230904 | 76 | 270 | 6.0 | 12.0 | 0.00 | 1.82 | 1.09 | 70 | 1008.7 |
| 20260507230005 | 76 | 262 | 5.0 | 12.0 | 0.00 | 1.82 | 1.09 | 71 | 1008.5 |
| 20260507225426 | 76 | 266 | 5.0 | 17.0 | 0.00 | 1.82 | 1.09 | 71 | 1008.3 |
| 20260507224509 | 77 | 274 | 5.0 | 13.0 | 0.00 | 1.82 | 1.09 | 71 | 1008.5 |
| 20260507223604 | 77 | 269 | 5.0 | 14.0 | 0.00 | 1.82 | 1.09 | 71 | 1008.3 |
| 20260507222704 | 78 | 265 | 5.0 | 12.0 | 0.00 | 1.82 | 1.09 | 70 | 1008.3 |
| 20260507221829 | 78 | 252 | 4.0 | 13.0 | 0.00 | 1.82 | 1.09 | 70 | 1008.1 |
| 20260507220904 | 77 | 280 | 4.0 | 16.0 | 0.00 | 1.82 | 1.09 | 74 | 1008.0 |
| 20260507220004 | 78 | 278 | 5.0 | 15.0 | 0.00 | 1.82 | 1.09 | 73 | 1008.0 |
| 20260507215404 | 77 | 272 | 6.0 | 15.0 | 0.00 | 1.82 | 1.09 | 74 | 1008.0 |
| 20260507214504 | 78 | 261 | 4.0 | 13.0 | 0.00 | 1.82 | 1.09 | 75 | 1008.0 |
| 20260507213604 | 78 | 245 | 4.0 | 11.0 | 0.00 | 1.82 | 1.09 | 73 | 1008.0 |
| 20260507212704 | 77 | 280 | 4.0 | 11.0 | 0.00 | 1.82 | 1.09 | 76 | 1007.8 |
| 20260507211826 | 78 | 245 | 5.0 | 11.0 | 0.00 | 1.82 | 1.09 | 76 | 1007.7 |
| 20260507210905 | 77 | 268 | 5.0 | 12.0 | 0.00 | 1.82 | 1.09 | 75 | 1007.7 |
| 20260507210005 | 78 | 239 | 4.0 | 11.0 | 0.00 | 1.82 | 1.09 | 73 | 1007.8 |
| 20260507205404 | 77 | 272 | 4.0 | 10.0 | 0.00 | 1.82 | 1.09 | 77 | 1007.8 |
| 20260507204537 | 77 | 276 | 3.0 | 10.0 | 0.00 | 1.82 | 1.09 | 76 | 1007.8 |
| 20260507203604 | 77 | 275 | 5.0 | 14.0 | 0.00 | 1.82 | 1.09 | 75 | 1008.1 |
| 20260507202725 | 77 | 256 | 4.0 | 13.0 | 0.00 | 1.82 | 1.09 | 75 | 1008.1 |
| 20260507201814 | 77 | 261 | 5.0 | 13.0 | 0.00 | 1.82 | 1.09 | 76 | 1007.9 |
| 20260507200904 | 77 | 269 | 5.0 | 14.0 | 0.00 | 1.82 | 1.09 | 75 | 1008.0 |
| 20260507200005 | 76 | 268 | 6.0 | 12.0 | 0.00 | 1.82 | 1.09 | 77 | 1008.2 |
| 20260507195425 | 76 | 267 | 6.0 | 12.0 | 0.00 | 1.82 | 1.09 | 77 | 1008.5 |
| 20260507194505 | 76 | 279 | 5.0 | 11.0 | 0.00 | 1.82 | 1.09 | 79 | 1008.7 |
| 20260507193604 | 75 | 268 | 5.0 | 12.0 | 0.00 | 1.82 | 1.09 | 79 | 1008.5 |
| 20260507192704 | 75 | 280 | 6.0 | 12.0 | 0.00 | 1.82 | 1.09 | 80 | 1008.7 |
| 20260507191847 | 74 | 286 | 5.0 | 15.0 | 0.00 | 1.82 | 1.09 | 80 | 1008.8 |
| 20260507190904 | 74 | 252 | 4.0 | 9.0 | 0.00 | 1.82 | 1.09 | 83 | 1008.8 |
| 20260507190005 | 73 | 273 | 4.0 | 10.0 | 0.00 | 1.82 | 1.09 | 84 | 1008.9 |
| 20260507185404 | 73 | 256 | 4.0 | 10.0 | 0.00 | 1.82 | 1.09 | 83 | 1008.9 |
| 20260507184504 | 73 | 263 | 3.0 | 9.0 | 0.00 | 1.82 | 1.09 | 83 | 1008.9 |
| 20260507183604 | 73 | 271 | 3.0 | 9.0 | 0.00 | 1.82 | 1.09 | 85 | 1008.8 |
| 20260507182704 | 73 | 276 | 3.0 | 8.0 | 0.00 | 1.82 | 1.09 | 85 | 1008.8 |
| 20260507181855 | 72 | 276 | 4.0 | 8.0 | 0.00 | 1.82 | 1.09 | 86 | 1008.7 |
| 20260507180925 | 72 | 254 | 3.0 | 8.0 | 0.00 | 1.82 | 1.09 | 85 | 1008.5 |
| 20260507180004 | 72 | 269 | 4.0 | 8.0 | 0.00 | 1.82 | 1.09 | 86 | 1008.9 |
| 20260507175404 | 72 | 280 | 4.0 | 8.0 | 0.00 | 1.82 | 1.09 | 87 | 1008.8 |
| 20260507174504 | 72 | 273 | 3.0 | 8.0 | 0.00 | 1.82 | 1.09 | 88 | 1008.9 |
| 20260507173625 | 72 | 224 | 2.0 | 8.0 | 0.00 | 1.82 | 1.09 | 88 | 1009.0 |
| 20260507172725 | 72 | 245 | 2.0 | 6.0 | 0.00 | 1.82 | 1.09 | 89 | 1008.9 |
| 20260507171838 | 71 | 281 | 3.0 | 7.0 | 0.00 | 1.82 | 1.09 | 90 | 1008.7 |
| 20260507170904 | 70 | 282 | 2.0 | 5.0 | 0.00 | 1.82 | 1.09 | 90 | 1008.5 |